Wind_Speed
50 49 49 49 49 49 51 53 52 50 49 50 53 56 59 57 49 39 29 22 19 17 15 16 17 17 18 19 21 24 26 28 33 41 49 56 61 66 67 67 69 70 71 70 68 67 66 65 65 65 65 64 64 62 62 61 59 59 60 61 59 57 56 55 55 54 52 54 54 51 50 50 50 51 50 47 46 45 43 39 33 33 31 26 23 20 15
49 49 48 48 48 49 52 54 52 51 50 50 51 54 56 54 47 39 31 24 20 17 16 15 15 16 17 18 19 20 21 24 29 36 44 49 53 58 63 66 69 70 72 72 69 68 68 67 67 67 66 66 66 65 64 63 63 62 62 62 59 58 57 56 57 58 56 57 57 54 54 54 53 53 51 49 49 49 47 43 40 40 37 33 32 26 19
48 48 49 49 49 50 52 53 52 51 51 51 51 52 53 51 46 39 33 27 22 19 17 16 14 15 16 17 19 20 21 23 25 31 39 44 46 49 54 60 66 70 71 71 70 69 69 69 69 69 69 68 67 67 66 65 65 64 62 62 60 60 60 59 60 60 58 58 59 58 57 56 55 55 54 52 52 52 50 46 45 44 39 37 36 29 25
48 50 51 52 52 51 50 51 52 51 51 52 50 50 50 49 45 40 34 29 24 21 19 17 15 16 17 18 18 20 21 21 21 25 32 39 43 43 44 49 59 66 68 68 69 69 69 71 72 71 71 70 69 69 68 67 67 66 64 63 62 63 63 61 60 61 60 60 61 59 58 58 57 57 57 55 53 52 50 48 48 45 40 38 35 30 30
49 52 54 55 54 50 46 47 50 51 52 52 50 48 47 47 44 40 35 29 25 23 20 18 18 18 18 18 17 18 19 18 18 20 25 31 37 38 38 40 47 58 64 66 67 69 70 72 73 73 73 72 71 71 70 70 69 68 67 66 64 64 64 62 61 62 62 61 61 60 59 59 59 58 57 54 53 51 50 49 49 45 42 39 34 31 32
49 52 55 54 52 47 43 45 48 50 52 53 51 48 45 43 42 39 36 31 27 24 21 20 19 19 18 17 16 17 16 15 15 16 20 23 27 31 32 34 37 44 52 60 65 67 70 72 73 75 75 74 73 73 72 71 71 69 69 68 66 65 65 65 63 63 63 62 61 60 60 60 60 59 57 54 53 51 49 50 50 47 44 40 35 33 34
48 52 54 52 49 47 45 45 46 48 50 53 53 49 44 42 39 37 35 32 29 25 23 21 20 19 18 16 15 16 14 13 12 15 20 20 21 25 27 31 35 36 41 51 58 61 66 73 75 76 76 75 75 76 74 74 73 71 70 70 68 67 67 66 65 64 64 63 62 61 61 60 60 59 57 56 55 53 51 51 50 48 45 41 36 35 36
48 52 53 51 49 47 46 45 45 46 48 51 54 52 46 41 38 36 34 32 29 27 25 23 20 20 20 16 14 15 14 12 10 12 20 21 21 23 24 26 31 33 35 44 54 57 63 73 77 76 77 77 77 78 77 76 75 73 72 71 70 70 69 67 65 65 65 64 63 63 62 61 60 60 59 58 57 55 54 52 50 48 45 40 38 38 38
48 51 52 52 50 48 47 45 45 46 47 49 53 54 50 44 39 36 34 31 29 26 25 23 21 20 20 17 14 14 13 11 8 9 17 19 18 20 25 27 27 29 32 38 47 55 61 70 76 77 77 78 79 79 78 77 76 75 74 73 72 72 71 69 67 66 66 66 65 64 63 62 61 61 59 59 58 57 55 53 51 49 46 41 39 40 39
47 49 51 52 50 49 48 46 45 45 46 48 51 53 53 48 41 36 34 32 29 26 24 23 21 20 20 17 15 13 13 11 8 7 13 16 14 14 21 27 28 29 31 32 39 48 57 65 73 76 78 79 79 79 79 78 77 77 76 74 74 74 73 71 69 68 68 68 67 66 65 64 63 62 60 59 59 57 55 54 52 50 48 44 41 41 40
47 49 51 51 50 49 47 47 46 45 44 45 48 51 53 52 46 39 35 33 30 26 22 21 21 19 18 16 15 13 12 12 9 8 10 13 14 12 14 21 26 28 30 30 31 38 48 59 67 73 76 78 79 80 80 79 78 78 77 76 75 75 74 73 72 70 70 71 70 67 66 66 66 65 63 61 60 58 56 56 55 53 52 48 45 44 42
48 50 51 51 50 48 47 46 46 46 43 43 45 47 50 52 50 43 38 35 32 26 21 20 20 18 16 14 14 14 12 12 10 8 8 11 15 17 15 17 23 26 26 29 30 30 37 47 58 67 73 76 78 79 80 80 79 78 78 77 77 76 76 75 74 72 72 72 71 69 68 68 68 67 65 63 61 60 59 59 57 55 54 51 48 47 45
48 49 50 51 50 49 47 46 46 46 44 41 42 44 46 49 50 47 42 38 35 28 21 19 20 19 16 14 13 14 12 11 10 9 7 8 12 17 19 19 22 25 25 27 30 31 32 38 47 57 66 72 77 79 80 80 80 79 79 78 77 77 77 77 76 75 74 74 72 71 71 71 70 69 66 64 63 62 61 60 58 57 57 55 51 49 46
47 49 49 50 49 48 46 45 45 46 44 41 39 41 44 46 47 48 45 41 39 33 23 19 20 21 18 15 13 13 13 11 10 9 8 7 8 11 15 19 23 25 25 26 27 29 31 34 39 48 56 65 72 76 78 80 80 80 79 78 78 78 77 77 77 76 76 75 74 73 72 72 71 71 69 67 66 65 63 60 60 60 60 57 54 51 48
47 48 49 48 48 47 45 43 43 45 44 40 37 38 41 43 43 45 45 42 41 38 28 20 19 20 20 18 14 12 12 12 11 9 8 7 8 8 9 12 17 23 27 27 26 26 27 28 32 38 46 55 63 69 75 79 80 81 80 79 78 78 78 77 77 77 77 77 76 74 73 73 73 73 72 70 68 67 64 61 62 63 61 58 56 53 49
47 48 48 48 47 46 45 43 41 42 42 39 36 35 37 39 39 42 44 42 40 39 33 25 21 20 19 19 16 13 11 11 11 10 7 7 7 6 6 8 11 16 23 27 27 26 25 25 26 29 36 45 54 60 67 74 78 81 82 81 79 78 78 79 78 78 78 78 77 75 74 74 75 76 75 72 69 68 66 63 63 64 61 59 57 54 50
46 47 48 48 47 46 46 44 42 41 40 39 36 33 34 36 37 38 40 40 37 36 34 30 27 22 19 18 17 15 13 11 11 10 8 6 6 5 4 6 8 11 17 24 28 28 25 24 24 24 29 35 42 49 58 66 73 78 80 81 80 79 79 80 79 79 78 78 78 77 76 77 78 78 76 74 71 69 67 65 65 65 63 60 58 55 52
45 46 47 47 47 46 46 45 43 41 40 39 37 33 32 34 34 34 36 36 35 33 31 31 30 25 21 19 17 16 14 12 10 10 9 7 6 6 4 4 5 7 11 17 24 28 27 25 23 24 26 29 33 40 48 58 65 71 75 79 81 81 81 80 80 80 80 79 78 78 78 78 79 79 78 75 72 70 68 67 67 66 64 62 59 56 53
45 46 46 46 46 46 45 44 43 41 39 39 38 35 32 32 33 33 32 32 32 30 28 29 30 28 25 22 19 17 16 13 10 9 9 7 6 6 5 4 3 5 8 11 15 21 24 25 25 25 25 25 27 32 38 46 52 58 65 73 78 81 83 83 81 80 80 81 80 79 79 80 80 79 78 76 73 71 70 69 67 65 64 64 61 58 55
44 45 46 46 46 45 44 43 42 40 38 38 39 37 34 32 32 31 29 29 29 28 26 26 27 28 26 23 19 18 17 14 11 8 8 7 6 5 5 4 3 4 6 8 10 13 18 21 23 24 24 24 25 26 30 37 43 50 58 68 75 79 82 83 84 83 81 81 81 80 80 82 82 79 78 77 74 72 71 70 68 66 65 64 62 60 57
44 45 45 45 45 44 43 42 42 41 38 37 38 37 34 32 32 32 29 28 27 26 24 22 23 25 24 22 19 17 17 15 11 9 8 9 7 6 5 5 4 4 5 7 8 10 13 16 17 18 20 22 23 23 26 31 37 44 52 62 70 74 75 79 83 85 84 83 83 83 83 83 82 79 78 77 75 72 71 71 70 69 67 65 63 61 59
43 43 44 44 44 44 43 42 41 41 39 38 37 35 33 32 33 34 32 29 27 25 22 20 21 21 21 21 19 16 15 14 11 9 8 8 7 6 6 4 2 3 5 6 7 8 11 13 15 15 17 18 19 21 23 26 32 38 46 54 62 67 72 77 81 84 86 87 86 85 84 83 82 80 79 78 76 73 72 71 71 71 69 67 64 62 60
41 42 42 43 43 43 43 41 41 40 39 39 38 34 32 33 34 36 36 31 27 25 21 19 19 19 19 20 19 16 14 12 11 9 8 7 6 5 4 3 2 1 3 5 7 8 9 10 11 13 15 16 18 19 20 22 26 32 39 47 54 60 68 75 79 83 87 89 88 87 85 83 83 82 80 79 77 75 73 72 71 71 70 68 65 63 61
40 40 42 42 43 43 42 40 40 40 39 38 37 34 33 33 34 36 36 33 28 24 21 18 19 20 18 18 18 17 15 12 11 10 9 8 7 5 4 2 1 1 3 5 7 9 9 9 10 11 13 15 16 17 17 19 21 26 32 39 46 54 61 67 72 80 85 87 88 88 86 84 84 83 81 79 78 76 74 73 72 71 70 68 66 64 62
38 40 41 42 42 41 39 38 38 38 37 35 34 33 34 36 37 37 36 34 30 24 19 17 19 21 19 17 16 16 15 13 11 10 9 9 8 6 4 1 1 1 2 4 5 7 8 9 9 11 12 12 14 16 17 18 20 24 28 32 37 46 55 61 66 74 80 85 88 89 87 85 85 83 82 81 80 79 77 75 73 72 70 69 67 64 62
38 40 41 41 41 39 37 36 35 35 35 34 32 33 36 37 38 36 34 33 29 21 15 16 18 21 20 18 16 16 16 15 13 11 10 9 8 6 4 2 1 2 2 3 3 4 6 7 8 10 11 11 14 17 18 18 19 23 26 29 33 40 49 56 61 68 74 80 83 84 85 84 83 83 83 83 82 81 79 76 74 73 70 68 68 66 64
38 40 41 41 39 36 35 35 35 34 33 33 32 33 34 34 34 32 31 30 26 19 14 15 18 20 19 17 16 17 18 18 17 15 13 10 9 7 5 3 3 3 3 4 4 4 4 5 6 8 9 9 11 14 16 18 20 20 22 25 30 35 41 48 55 62 68 71 74 79 83 84 83 84 85 84 83 82 80 77 76 75 71 68 67 64 61
38 40 41 40 37 35 35 35 34 33 32 32 32 32 32 32 33 31 29 28 27 22 19 18 17 18 19 17 16 17 19 20 19 17 15 13 10 8 6 4 3 3 4 5 5 5 3 2 2 4 5 6 7 10 14 16 15 15 17 21 26 30 35 41 48 55 60 63 67 75 80 81 80 81 83 83 83 82 81 79 78 76 73 70 67 61 55
38 39 40 38 36 36 36 34 32 31 31 31 31 32 32 32 32 32 30 29 28 26 25 22 18 17 18 17 15 16 18 19 18 17 15 13 12 10 8 6 5 4 4 5 5 4 4 3 2 2 2 2 4 6 9 10 10 11 13 15 17 20 26 32 39 44 49 54 61 69 75 76 74 76 79 81 82 82 81 80 79 77 75 72 71 64 56
38 38 38 36 35 36 35 32 31 31 32 32 31 30 29 30 31 31 30 29 29 29 28 25 19 17 18 18 17 17 17 18 18 17 15 14 13 12 10 9 8 7 7 6 6 5 5 5 4 3 3 3 4 6 7 9 11 11 7 4 5 8 13 20 28 35 42 49 56 64 70 70 69 72 77 79 79 80 80 79 79 78 76 73 72 68 61
37 37 35 33 34 34 32 30 30 32 33 33 32 30 29 29 30 30 29 29 29 29 29 26 21 19 18 19 19 18 18 18 19 19 18 17 16 15 14 14 13 12 11 10 10 9 8 8 6 5 4 4 4 5 5 7 10 9 5 4 6 7 8 14 21 29 37 44 50 58 64 64 65 68 71 73 74 75 76 76 77 77 76 74 72 70 64
35 34 32 31 33 31 28 28 30 32 33 33 32 30 29 29 29 29 29 29 30 30 30 28 24 21 20 19 19 19 19 19 20 20 20 20 20 20 19 18 17 16 15 14 13 12 11 10 10 9 8 6 3 2 2 4 7 9 9 9 9 8 6 8 13 19 27 36 43 50 55 56 58 62 63 64 67 70 70 71 73 74 74 73 72 70 66
34 32 29 30 31 29 26 28 30 31 32 33 32 29 27 27 28 28 28 29 29 29 29 28 26 23 20 19 19 20 20 20 21 22 22 23 23 23 23 22 20 20 18 17 17 17 16 16 15 14 13 11 8 5 1 2 5 8 10 10 8 5 4 5 6 8 13 20 29 38 45 49 53 56 57 59 62 65 65 66 67 68 68 69 69 68 66
32 29 27 29 30 28 25 27 30 30 31 33 32 29 27 27 27 28 29 29 29 29 28 27 26 23 21 19 19 19 19 20 21 21 22 23 24 24 24 24 22 22 22 22 22 22 22 21 20 18 17 16 13 10 6 3 2 6 9 9 7 6 6 6 7 8 10 12 17 25 34 44 50 53 54 56 58 58 58 60 61 62 63 64 64 62 60
30 27 26 28 29 29 27 26 26 27 29 32 33 31 29 28 27 28 29 30 30 29 28 26 25 23 21 20 19 18 18 19 20 20 21 23 24 24 24 23 23 24 24 25 26 26 25 24 22 21 20 19 17 13 8 4 3 4 6 7 7 7 7 8 9 12 14 13 14 19 27 39 48 52 52 53 54 54 55 56 56 56 56 57 56 54 52
28 26 25 26 29 31 30 25 22 23 27 30 32 33 31 29 28 28 28 30 31 31 30 28 25 23 21 20 20 19 19 19 20 20 21 23 24 24 24 24 24 24 24 24 24 22 21 21 20 18 18 18 16 12 7 5 5 4 1 2 5 10 12 12 11 11 12 11 11 15 22 32 43 50 52 53 53 53 53 53 53 50 49 50 49 48 47
26 25 25 27 29 32 31 24 18 21 26 29 30 31 30 29 29 28 28 29 31 32 31 30 28 25 23 21 20 19 19 20 20 21 22 23 24 25 24 24 24 22 20 20 21 18 16 17 16 14 14 15 13 10 7 5 5 5 5 7 10 12 15 13 10 9 10 10 11 13 17 25 37 48 53 53 53 53 52 51 49 46 44 45 46 45 43
24 24 26 28 29 30 29 23 17 20 25 27 27 27 28 30 31 32 31 31 32 32 32 30 28 26 25 23 21 20 19 19 19 20 22 23 24 25 27 28 28 25 22 21 21 19 16 16 14 11 10 11 10 9 7 7 8 8 9 12 13 11 12 9 8 9 11 11 12 13 14 19 30 43 52 54 53 53 51 48 45 43 41 43 44 44 43
23 24 27 30 29 28 29 25 19 18 22 24 24 25 28 30 33 36 36 35 35 35 34 31 29 27 26 24 23 21 20 20 20 23 26 28 31 34 36 37 37 37 35 35 33 29 24 19 17 15 12 10 9 8 8 10 13 14 12 11 10 9 8 6 6 8 9 9 9 9 12 17 25 36 48 52 51 50 47 44 42 41 43 46 46 44 44
21 22 27 31 30 28 27 25 19 16 17 20 22 25 28 30 32 36 38 38 38 38 38 36 34 32 31 30 29 27 27 29 30 32 35 36 37 38 39 38 37 38 38 40 42 42 38 32 26 22 19 15 12 11 10 11 13 13 11 7 5 5 4 2 2 4 5 5 7 12 18 22 24 29 37 41 41 41 41 42 42 42 45 47 45 42 42
19 21 25 29 30 29 27 25 21 16 14 16 19 23 27 30 31 32 34 35 36 37 37 37 36 37 37 37 37 36 37 37 37 36 36 35 34 35 36 36 35 36 37 38 40 44 45 42 37 32 27 20 15 14 13 12 12 11 9 6 5 6 6 3 2 2 0 6 18 24 26 26 25 25 28 34 37 37 38 41 42 43 44 45 44 41 42
18 22 25 27 27 27 26 25 23 19 15 14 17 20 25 28 28 28 29 30 30 32 33 32 33 34 34 34 35 35 34 34 33 34 34 35 35 35 36 37 37 38 38 38 38 40 42 42 41 41 38 30 20 14 13 12 11 9 8 8 8 8 8 4 5 4 6 15 29 33 26 20 19 21 25 31 35 36 38 41 41 40 41 42 43 43 42
21 24 26 24 23 22 20 19 19 18 16 16 17 19 22 24 24 25 27 27 26 26 27 28 28 28 27 27 28 28 28 28 29 31 32 33 34 34 35 37 38 39 38 36 36 37 40 40 39 41 42 38 28 17 13 13 12 11 10 11 10 7 3 5 8 8 12 22 33 31 20 13 15 22 25 25 26 29 33 36 37 39 40 41 41 42 42
23 25 25 22 19 17 15 15 16 17 18 19 20 21 21 21 20 20 22 22 21 21 22 23 24 25 26 25 24 24 24 24 24 26 28 29 29 31 33 34 34 34 36 36 36 36 37 37 36 36 37 38 34 24 15 12 13 14 14 15 13 7 6 10 12 13 15 21 26 23 16 12 15 19 21 21 22 24 25 28 34 41 44 43 42 42 43
23 23 21 18 15 13 13 14 15 17 19 21 22 23 23 22 20 18 17 17 18 19 19 19 20 22 23 23 22 23 23 21 20 22 24 23 24 27 29 29 28 30 33 35 35 35 35 35 34 33 34 35 36 34 27 20 15 15 17 21 21 16 15 16 15 15 17 19 20 19 16 15 18 20 21 21 23 22 21 24 34 44 47 45 42 40 40
23 20 18 15 12 11 13 16 18 20 21 22 23 24 24 22 20 18 15 14 14 16 18 18 18 20 21 20 20 21 21 20 20 23 22 20 22 26 25 22 23 28 32 34 34 34 33 32 32 33 33 32 33 35 35 33 28 22 19 19 20 18 18 18 16 16 19 20 20 20 19 20 22 23 22 22 22 21 21 25 31 37 43 46 44 37 32
23 20 17 15 13 15 18 20 23 24 25 25 25 24 24 22 21 19 17 15 13 13 15 16 16 17 18 18 18 19 20 20 21 22 20 20 23 24 21 18 21 27 31 33 33 31 29 28 29 31 32 31 31 31 33 35 33 28 21 17 16 16 16 17 16 18 20 20 20 21 22 23 22 21 20 21 23 25 26 29 31 31 36 44 45 37 30
20 19 18 17 17 19 22 23 24 25 25 25 25 24 23 22 21 20 19 18 16 15 14 14 15 15 15 15 16 18 18 19 20 20 18 18 20 21 20 20 22 26 28 29 29 26 24 24 26 27 27 28 29 29 29 30 31 31 28 24 20 18 18 17 17 18 20 20 20 21 22 21 19 18 19 21 24 25 27 30 33 35 36 38 38 36 34
19 19 19 20 21 23 24 24 24 25 24 24 23 22 20 19 19 19 20 20 19 17 15 14 13 13 14 15 16 17 17 17 19 19 18 18 19 20 20 21 21 22 24 25 24 22 21 22 22 23 24 24 25 26 26 26 25 26 28 29 29 29 27 25 22 21 22 22 21 22 22 21 20 19 21 24 25 26 27 28 31 35 39 41 40 40 41
20 20 20 22 23 24 24 23 22 22 22 21 20 19 18 17 17 17 18 19 20 19 18 16 14 13 13 15 17 16 15 16 17 18 18 19 20 20 19 20 20 20 21 22 22 21 21 20 20 20 21 21 21 22 23 23 22 21 21 22 25 28 28 29 29 28 25 22 21 20 21 21 20 20 23 26 26 27 29 31 32 34 39 43 44 43 42
17 18 19 20 21 21 20 20 20 20 19 19 19 18 18 17 17 17 18 20 21 21 20 17 15 13 13 12 13 13 14 15 17 18 18 19 19 19 18 18 18 18 18 19 19 19 18 18 19 19 18 18 19 19 19 20 20 19 18 17 18 18 19 20 24 26 27 26 25 24 24 25 24 24 26 29 29 29 31 34 35 35 36 38 39 39 39
18 18 19 20 20 20 20 20 20 20 20 20 20 20 19 19 19 19 20 20 20 19 18 17 15 14 12 11 11 12 14 15 17 19 19 19 19 18 18 17 16 15 16 16 16 16 16 16 16 16 16 16 16 16 16 17 17 17 16 15 14 13 12 12 13 16 19 23 25 25 26 28 29 29 31 32 32 33 34 36 37 36 35 35 35 35 35
Wind_Direction
337 336 337 337 337 336 336 337 339 340 340 340 342 344 347 348 346 345 343 337 330 323 311 298 289 282 276 272 271 270 264 254 240 231 228 226 224 222 220 219 219 218 218 218 217 217 218 218 219 219 219 219 219 218 218 217 216 213 214 216 217 218 216 215 219 219 216 221 224 224 226 228 228 228 227 224 223 224 225 223 219 220 220 216 204 188 188
337 337 338 338 338 336 337 339 340 341 343 344 345 346 349 351 350 349 348 346 340 333 323 313 303 294 289 285 281 278 271 261 247 235 230 227 225 223 220 219 218 217 216 216 214 214 215 216 217 218 219 219 218 218 217 216 216 214 215 215 215 217 217 213 216 218 216 218 222 222 224 227 228 230 229 226 224 224 222 218 215 216 215 212 208 205 205
340 340 340 339 339 338 339 342 343 344 346 348 348 347 350 354 355 353 352 350 346 341 336 328 317 307 301 294 289 285 278 269 254 240 232 228 227 225 221 219 218 217 216 215 212 212 212 213 215 216 217 217 218 218 217 216 216 215 215 215 214 216 217 213 214 218 217 218 221 222 223 226 227 228 229 227 225 225 223 220 217 216 213 210 209 207 199
342 342 340 339 337 336 338 343 346 347 349 350 350 349 350 354 358 358 356 353 350 346 342 337 326 316 309 302 297 293 285 275 260 244 235 230 228 227 225 221 218 217 216 215 212 210 210 212 213 213 215 216 216 217 218 217 216 214 214 215 213 215 217 214 214 218 218 218 221 222 224 226 227 228 229 228 227 226 224 223 222 220 216 214 211 203 189
343 342 341 341 340 337 338 343 347 350 351 352 352 351 350 353 357 360 0 359 355 350 345 339 331 323 317 310 307 304 295 283 265 245 234 230 228 227 227 224 221 218 216 214 212 210 209 211 212 212 213 214 214 216 217 217 217 215 214 214 213 213 216 215 215 217 219 218 219 221 223 225 227 229 231 231 230 228 226 225 225 223 219 217 214 204 190
342 342 342 344 346 345 343 344 348 351 352 353 353 353 353 353 354 357 0 1 358 352 346 340 333 329 325 316 315 317 308 295 275 240 220 223 226 225 224 222 220 220 218 215 213 211 209 210 211 210 211 212 213 215 216 217 217 216 214 214 214 213 214 214 214 216 218 219 220 221 222 224 227 230 232 233 233 231 229 227 226 224 222 218 214 208 200
342 342 344 346 349 349 348 349 351 352 352 353 353 354 354 354 353 355 357 359 358 353 347 343 338 335 332 323 321 325 320 311 287 233 206 205 215 219 220 218 216 217 218 215 213 211 209 209 210 209 210 211 212 213 215 216 217 216 215 214 214 214 214 213 214 215 217 218 219 220 222 224 226 228 230 232 233 232 231 230 228 227 225 220 215 214 211
342 343 345 347 349 350 350 351 353 354 353 353 352 353 354 355 354 354 355 356 357 353 349 347 343 339 337 329 326 331 327 322 303 239 214 207 206 206 207 212 215 217 220 218 213 210 209 209 209 209 208 210 211 212 214 215 216 217 216 214 214 215 215 213 213 215 217 218 218 219 220 222 224 226 228 229 231 231 231 231 231 231 228 223 218 218 217
343 343 345 347 348 349 350 350 353 354 354 354 353 352 353 355 355 354 353 355 358 355 350 348 346 344 343 336 328 332 332 327 315 257 232 222 214 205 199 201 206 209 217 222 219 214 210 209 209 209 208 209 210 212 213 214 215 217 217 216 214 215 216 214 213 214 217 218 219 219 220 221 223 225 226 227 229 230 230 231 232 233 231 225 220 219 219
343 343 346 347 348 348 349 350 352 353 354 354 354 352 352 354 356 355 352 353 357 357 352 349 348 347 347 343 334 331 331 328 320 278 247 231 224 215 204 202 201 199 204 217 223 220 214 210 210 209 208 209 210 211 213 214 215 216 217 217 216 215 215 215 214 214 216 218 218 219 220 220 222 223 224 226 228 230 231 232 232 234 233 228 222 220 220
344 344 346 348 348 348 349 351 353 353 353 354 354 353 352 352 354 356 354 352 354 358 354 348 347 347 348 346 341 335 330 327 322 300 269 243 231 222 207 206 206 201 200 206 216 222 220 215 212 210 209 209 210 210 212 213 214 216 217 217 217 216 215 216 215 214 216 217 217 218 220 221 221 221 223 225 227 229 231 232 232 233 234 230 225 224 223
345 345 347 348 348 348 349 351 353 354 353 353 354 353 353 352 352 355 356 355 354 357 354 345 344 348 349 346 342 340 336 329 324 312 291 268 247 234 222 212 209 207 208 207 206 213 219 218 215 213 211 211 210 211 212 213 214 215 216 217 218 218 217 216 216 216 216 218 218 218 220 222 222 222 221 223 226 228 230 231 231 232 234 232 229 228 226
345 346 348 349 349 349 349 350 352 353 354 353 353 353 353 353 352 352 354 356 357 359 354 343 340 345 348 345 340 340 340 334 329 320 301 285 266 249 243 235 222 216 216 214 209 210 215 219 218 215 213 212 212 211 211 212 214 215 216 217 218 218 218 217 217 216 217 218 218 218 220 221 223 223 222 222 225 228 230 231 232 232 233 233 231 229 228
345 346 348 349 350 349 350 350 350 351 352 353 352 352 353 354 353 351 352 355 358 359 357 345 338 339 342 342 339 338 338 335 330 325 310 292 279 261 251 245 238 232 227 219 214 214 217 222 223 220 217 215 214 213 213 213 214 215 216 217 218 219 219 219 218 217 218 219 219 219 220 222 224 225 224 223 224 226 228 230 232 233 233 234 233 231 229
345 346 348 349 350 349 350 350 348 347 349 351 351 351 353 354 354 352 351 354 357 359 359 348 336 334 335 338 340 338 334 333 329 327 323 307 291 276 258 245 241 240 236 229 223 220 220 224 225 225 223 220 217 216 215 214 214 215 216 217 218 219 219 220 220 219 218 219 219 220 220 222 224 226 226 224 224 226 227 229 232 234 234 236 236 235 231
345 346 347 349 350 349 348 349 347 344 346 349 350 350 351 353 355 353 351 352 356 359 359 351 339 333 330 330 336 337 330 327 326 325 328 324 314 300 275 250 236 235 237 235 231 227 226 227 226 227 228 225 220 218 218 217 216 216 216 217 218 219 220 220 220 220 219 219 220 220 221 222 224 226 227 226 225 226 227 228 231 234 235 236 237 237 234
344 345 347 348 349 349 347 347 347 345 345 348 349 350 350 351 353 354 351 350 354 357 358 354 348 342 332 326 329 333 330 326 323 321 323 324 322 321 297 260 240 231 232 234 234 232 231 231 230 229 230 228 223 220 220 219 218 217 217 218 218 219 221 221 221 221 221 220 220 220 222 223 224 225 227 227 226 226 227 228 231 233 235 236 237 237 236
344 345 347 347 348 348 347 346 347 346 346 347 348 350 350 349 350 352 350 349 351 355 357 355 353 351 344 333 328 326 326 327 324 320 320 318 312 317 317 285 254 238 227 226 229 230 230 230 230 229 231 232 228 223 222 221 221 220 219 219 219 220 221 222 222 222 222 221 221 221 222 224 224 225 227 227 226 227 228 229 231 232 233 234 235 235 235
345 346 347 348 347 348 347 346 346 345 345 345 346 348 349 347 346 348 350 349 347 351 355 355 355 355 352 345 336 327 323 325 326 318 312 310 305 304 309 307 276 243 229 223 223 223 222 225 228 229 232 235 233 229 225 223 222 222 221 221 221 221 222 222 222 223 223 222 222 222 223 224 224 225 226 227 227 228 229 229 230 232 233 233 234 234 234
346 347 348 348 347 347 348 347 346 346 345 343 343 345 347 346 342 343 347 347 344 347 353 356 355 354 354 353 347 337 332 330 326 311 300 298 296 288 286 282 264 242 234 230 226 219 215 218 223 225 227 230 231 230 226 224 223 222 222 222 221 221 222 223 223 223 224 224 223 223 224 225 225 225 227 227 227 228 229 230 230 231 232 233 233 233 233
346 348 349 349 348 347 347 347 346 346 345 343 340 341 345 346 342 340 343 345 342 342 350 355 354 353 355 358 356 349 344 342 338 322 304 298 293 284 279 274 261 253 244 232 224 218 214 213 213 214 218 223 227 227 227 226 225 224 224 223 222 222 223 224 224 224 224 225 225 224 225 226 226 226 227 228 228 228 230 231 232 232 232 232 232 232 232
347 348 349 349 348 347 347 347 347 345 345 345 342 340 343 345 342 338 340 344 340 338 345 353 353 351 355 359 360 356 352 351 350 343 323 309 300 289 288 295 293 264 249 236 224 218 216 214 210 208 209 212 217 222 224 227 227 226 226 226 224 224 224 225 225 226 225 225 225 226 226 226 227 227 228 229 229 228 229 231 233 234 234 233 233 233 233
347 348 349 349 349 348 348 348 348 347 346 346 346 346 346 345 340 335 337 341 339 335 339 349 352 350 351 352 352 354 356 355 354 352 344 332 324 315 311 319 319 242 223 226 222 216 216 216 213 211 210 207 207 214 220 226 229 229 228 228 227 225 225 226 226 227 227 226 226 227 227 227 228 229 229 230 230 229 229 231 233 234 235 235 234 233 234
347 348 349 350 350 350 349 350 351 351 350 349 350 351 350 348 344 338 336 340 342 337 333 340 352 354 351 345 340 339 347 356 358 355 355 356 360 11 18 358 295 216 201 212 215 212 212 214 212 212 214 210 207 210 215 219 225 229 228 228 229 228 228 228 227 227 228 228 227 228 228 228 229 230 230 231 231 231 230 231 232 234 236 236 235 235 235
348 349 349 350 351 351 351 352 354 355 355 354 354 355 354 350 345 341 339 341 345 343 332 332 349 358 355 348 340 334 338 352 1 1 4 11 25 43 56 62 213 198 199 211 217 216 214 214 212 212 214 212 210 213 215 214 220 226 227 226 228 229 229 229 229 229 229 229 228 228 229 230 231 232 232 233 233 232 231 231 232 234 236 237 237 236 236
348 349 350 351 352 353 354 356 357 356 356 356 357 357 357 352 346 345 346 347 351 354 341 330 346 0 359 354 351 346 346 354 4 11 14 18 29 47 61 73 99 111 141 173 191 206 211 213 214 214 214 213 211 213 214 214 219 224 225 226 229 231 231 231 231 230 230 230 230 230 230 231 232 233 233 234 234 233 233 232 233 234 235 237 238 238 238
349 350 351 351 353 355 357 358 358 356 355 356 357 358 357 354 349 349 350 351 355 0 348 335 350 6 7 2 1 1 3 8 12 16 23 28 33 39 45 50 67 91 121 143 156 174 194 208 215 218 221 222 220 217 215 216 219 220 221 225 229 231 232 232 233 232 231 231 231 232 231 232 233 233 234 234 235 235 235 234 234 234 235 237 239 240 240
350 351 352 353 355 357 359 359 358 357 356 357 359 359 357 356 355 355 358 1 3 2 352 347 0 16 18 16 14 12 14 19 22 24 28 34 39 44 51 60 75 97 118 130 137 145 156 172 193 213 225 231 229 222 217 216 215 212 213 220 226 229 232 234 234 235 233 232 232 233 232 232 233 234 235 235 235 236 236 236 236 235 235 236 238 239 242
352 352 353 355 357 359 2 2 2 2 1 2 2 1 359 359 0 2 7 13 16 15 11 10 19 28 29 29 30 30 29 31 33 34 35 36 41 48 54 62 71 87 106 118 122 125 131 139 144 158 196 214 216 212 206 199 193 195 203 215 224 228 231 233 234 235 234 233 233 233 232 232 233 235 235 235 236 236 237 237 238 237 236 236 238 238 240
353 354 355 357 0 4 7 9 10 10 10 9 8 6 4 4 5 6 9 17 24 29 30 33 38 40 37 37 40 43 43 42 42 43 43 42 43 49 53 58 62 67 77 86 87 89 91 88 82 89 102 119 149 171 171 167 175 188 197 212 233 230 224 224 227 230 230 231 232 233 232 232 233 234 235 235 236 236 237 238 239 239 238 238 238 237 237
354 355 356 360 5 8 11 15 17 17 17 16 14 14 13 12 12 13 16 24 31 36 40 45 50 50 45 41 39 42 46 46 45 44 45 45 45 46 47 48 51 54 58 62 61 61 64 63 57 61 74 92 134 168 172 176 196 219 256 294 277 257 229 215 218 223 226 229 232 233 233 232 232 233 234 234 235 235 236 237 238 239 239 239 240 240 238
356 357 358 3 8 11 16 21 21 20 20 19 19 20 20 19 19 20 25 32 37 40 44 47 50 51 49 45 40 39 42 45 45 45 45 45 46 48 46 45 46 46 46 47 48 47 47 45 39 35 38 48 75 165 225 225 228 247 269 274 267 258 232 208 211 217 223 228 230 232 232 231 231 231 232 232 233 234 235 236 237 239 240 239 240 241 239
357 359 1 7 11 14 20 25 23 21 20 21 21 23 25 26 25 26 32 38 42 43 46 48 49 50 50 47 43 39 39 43 46 47 47 46 45 47 47 46 46 47 45 44 45 43 40 37 35 34 36 44 58 66 11 275 235 235 249 260 266 262 231 212 210 215 224 229 231 230 227 226 226 227 227 228 230 232 233 234 235 237 238 238 239 240 240
360 1 4 11 16 17 21 23 22 21 23 23 23 25 29 32 33 35 39 43 44 44 45 47 50 51 49 47 45 41 39 40 41 42 43 43 41 42 45 46 48 51 51 49 48 45 41 38 35 34 35 40 46 49 37 2 272 240 245 259 275 271 249 242 248 255 257 251 242 233 226 221 221 222 223 225 227 228 228 230 232 233 236 237 238 239 240
2 3 8 14 19 20 21 21 21 24 29 30 30 31 33 35 38 41 45 48 49 47 45 44 46 48 48 47 45 40 37 37 37 37 38 37 35 37 42 46 48 49 49 47 46 43 41 39 36 32 31 30 30 34 37 22 344 303 266 264 278 283 280 288 292 284 275 267 254 242 231 222 217 216 217 219 221 221 222 225 227 229 231 234 235 235 237
4 6 11 16 20 22 21 21 25 33 38 38 36 36 36 37 38 41 45 49 51 50 46 42 41 43 44 45 44 40 38 37 35 33 33 33 35 39 43 44 42 39 37 37 37 35 34 32 28 23 19 14 11 14 22 28 27 28 2 293 319 314 307 309 306 287 271 264 253 241 232 223 216 211 208 209 211 213 215 219 222 222 224 226 227 228 229
8 11 15 19 21 20 19 22 35 46 47 43 39 38 40 42 43 43 44 48 52 52 49 44 40 38 38 40 40 39 38 37 37 36 36 36 38 40 40 37 34 31 30 33 34 33 33 29 20 10 7 7 4 1 1 17 42 52 45 29 5 331 312 314 314 283 261 259 257 246 234 224 215 208 203 202 204 205 208 211 213 213 214 217 220 220 221
11 18 24 25 22 18 19 28 48 57 52 47 44 44 45 46 45 45 45 48 50 52 51 49 45 41 39 39 40 41 42 40 39 39 38 38 40 43 46 46 46 45 47 47 44 42 43 37 25 13 8 8 7 0 348 345 344 340 354 12 6 329 304 309 307 276 258 261 266 257 236 220 211 204 198 196 196 197 199 202 201 201 204 210 214 214 214
9 20 28 29 24 18 19 26 42 57 58 54 50 50 51 49 47 47 48 50 51 50 50 50 49 47 44 43 42 45 48 48 47 50 54 57 59 61 62 61 59 58 60 60 56 52 50 43 34 30 29 24 11 353 336 333 334 335 344 0 353 315 293 295 289 269 259 262 264 238 201 191 197 198 196 193 191 190 191 190 189 191 198 205 209 210 212
8 18 28 29 25 20 19 21 25 40 56 60 59 59 58 55 52 51 52 53 54 52 50 51 53 54 54 54 54 56 62 66 69 71 71 70 70 68 67 64 62 61 62 62 60 57 54 50 44 40 39 37 24 4 349 348 354 359 2 1 341 316 317 326 279 262 263 241 198 163 149 151 164 177 183 184 184 184 184 183 185 191 198 203 206 209 212
11 19 28 28 22 18 17 16 14 17 35 55 66 69 66 61 57 55 54 54 54 53 51 52 56 60 62 65 67 70 73 75 76 75 73 70 69 68 66 64 62 60 59 59 60 59 57 54 51 45 39 32 22 10 2 359 3 10 11 3 351 357 7 23 155 162 72 164 162 154 142 136 141 157 173 182 184 183 184 186 191 195 198 201 204 207 210
19 25 29 26 19 14 13 12 8 6 15 36 51 59 61 60 60 59 55 51 50 49 47 47 49 54 58 62 65 68 70 71 71 70 70 69 68 66 64 62 60 57 54 55 58 59 58 57 55 52 46 39 27 8 357 358 4 12 13 1 351 357 13 58 132 118 99 138 151 151 144 136 138 151 169 181 185 185 188 192 194 194 196 201 206 208 208
28 28 28 23 15 11 10 9 7 7 13 23 31 39 46 52 57 59 57 53 49 46 44 42 41 42 44 46 50 55 59 61 64 66 67 67 66 65 64 62 59 56 54 54 55 56 56 55 54 51 49 48 43 25 2 355 354 350 347 347 345 344 24 115 126 121 128 143 149 147 140 133 140 145 148 154 162 172 183 190 192 192 196 202 206 208 211
32 29 26 19 11 8 13 17 19 20 24 27 29 31 35 39 44 51 58 60 56 49 42 38 35 34 32 31 34 40 45 49 54 56 58 60 63 63 62 62 60 58 56 54 52 51 51 49 47 46 48 53 54 48 29 360 345 346 359 15 22 38 109 127 125 127 139 150 155 156 155 153 149 145 142 141 147 158 170 178 184 190 194 196 198 203 208
34 29 24 17 8 6 15 24 29 33 35 37 37 36 33 31 30 36 48 59 62 57 48 36 26 24 25 24 24 27 31 34 36 38 41 46 51 54 55 56 58 59 58 55 52 49 46 42 39 40 45 52 57 57 55 49 37 34 42 46 49 65 103 120 123 130 141 148 150 152 152 145 138 139 144 145 146 149 155 167 182 193 194 190 189 195 201
38 33 26 19 14 19 27 31 33 34 35 36 38 39 37 33 30 31 37 46 54 58 55 45 29 17 14 15 18 21 21 21 23 24 24 26 34 42 46 46 47 52 57 56 52 48 44 38 35 36 40 45 51 55 60 64 63 61 62 60 60 75 105 123 127 131 140 147 149 146 141 133 132 143 157 161 156 153 157 165 180 193 198 196 196 201 208
36 32 28 24 25 30 33 32 31 29 28 27 29 32 34 32 30 29 32 35 39 45 52 53 43 25 12 7 10 15 16 16 17 17 17 18 22 26 28 29 33 41 48 51 50 46 41 37 36 37 37 39 43 49 57 65 69 70 73 74 75 87 113 133 138 134 137 146 151 147 142 140 143 155 168 170 165 168 174 175 175 182 194 202 208 213 216
28 23 20 19 21 22 22 23 24 23 22 20 20 21 24 26 26 25 25 27 29 31 36 45 48 39 23 8 1 2 4 4 3 4 8 11 8 4 4 13 25 33 38 41 42 40 35 34 35 37 36 38 41 45 52 62 70 75 80 84 87 94 108 127 140 144 148 157 161 156 155 162 173 179 177 171 169 174 181 180 175 174 181 193 204 210 210
16 10 9 11 14 15 15 18 20 19 18 17 15 13 13 16 19 21 21 22 22 21 21 27 35 38 32 21 9 1 354 349 347 349 350 348 346 350 359 7 16 26 32 32 30 28 28 29 31 33 34 36 41 45 49 55 63 71 77 84 90 94 99 110 125 140 156 169 175 171 170 178 186 182 171 168 174 181 185 185 182 179 177 182 191 198 201
6 3 5 9 13 14 16 19 21 20 19 17 15 11 10 10 11 14 17 18 17 14 12 13 16 21 25 23 16 7 358 349 345 342 338 334 337 347 358 1 4 13 21 21 19 19 22 23 26 28 30 32 36 42 47 52 57 61 66 75 83 86 89 97 110 124 140 157 165 166 168 175 181 177 169 170 179 185 184 183 184 183 182 185 190 194 197
3 3 7 12 16 17 19 21 23 22 22 22 19 18 17 17 15 16 18 19 16 10 4 2 5 11 15 14 7 3 2 0 353 345 338 335 336 340 345 350 357 3 4 5 8 12 14 14 17 20 23 26 29 34 39 46 51 54 56 64 75 80 79 84 97 110 125 138 147 153 159 164 168 171 173 177 183 185 181 179 182 185 187 191 194 195 197
6 8 12 17 20 21 22 23 24 24 23 22 22 22 22 21 22 23 23 22 18 10 1 358 358 359 357 353 351 355 1 1 355 347 342 338 336 333 332 336 343 346 346 349 356 2 3 4 4 5 9 15 20 24 30 36 41 44 46 51 64 78 82 81 87 98 111 123 132 139 144 149 154 160 165 170 175 175 173 174 178 182 184 187 190 191 191
Height
5715 5710 5705 5700 5694 5689 5683 5676 5670 5663 5657 5650 5643 5635 5625 5615 5607 5602 5599 5597 5596 5595 5595 5595 5594 5594 5593 5593 5593 5592 5592 5593 5595 5598 5600 5603 5608 5614 5621 5627 5632 5638 5644 5651 5659 5664 5669 5675 5681 5686 5692 5697 5703 5709 5715 5720 5726 5731 5734 5738 5745 5751 5756 5761 5763 5768 5773 5773 5775 5781 5783 5785 5788 5790 5794 5799 5802 5805 5808 5814 5820 5821 5823 5827 5830 5833 5836
5713 5707 5702 5696 5691 5685 5679 5673 5666 5659 5652 5646 5639 5632 5624 5615 5607 5602 5599 5596 5595 5594 5593 5592 5591 5590 5589 5589 5588 5587 5586 5587 5589 5591 5592 5595 5598 5603 5609 5616 5621 5626 5633 5641 5648 5655 5661 5667 5672 5678 5683 5689 5695 5700 5706 5711 5716 5722 5726 5732 5739 5744 5749 5755 5756 5758 5763 5765 5769 5773 5775 5778 5782 5785 5789 5794 5797 5800 5803 5809 5814 5815 5818 5823 5826 5830 5832
5710 5705 5699 5694 5688 5681 5675 5669 5662 5656 5648 5641 5635 5628 5622 5615 5608 5602 5598 5596 5594 5593 5592 5590 5589 5588 5587 5586 5585 5583 5582 5582 5583 5584 5585 5588 5591 5594 5599 5605 5610 5617 5624 5631 5639 5646 5651 5657 5662 5669 5674 5680 5687 5692 5697 5702 5707 5714 5721 5726 5733 5736 5740 5746 5749 5751 5757 5760 5762 5766 5769 5773 5777 5779 5783 5787 5791 5794 5799 5804 5807 5810 5815 5819 5822 5826 5828
5708 5702 5697 5691 5684 5678 5672 5666 5659 5653 5646 5639 5632 5626 5620 5614 5608 5603 5599 5596 5594 5592 5591 5589 5588 5586 5585 5583 5582 5580 5578 5577 5578 5579 5580 5582 5585 5588 5591 5595 5600 5607 5615 5623 5631 5637 5642 5647 5653 5659 5665 5671 5678 5683 5689 5694 5700 5707 5713 5718 5725 5729 5732 5738 5743 5746 5750 5753 5756 5761 5766 5769 5771 5774 5777 5781 5786 5790 5795 5800 5802 5807 5813 5816 5820 5824 5826
5705 5700 5694 5687 5680 5674 5668 5663 5657 5650 5643 5637 5631 5625 5619 5612 5607 5604 5600 5597 5594 5592 5590 5588 5586 5584 5583 5581 5579 5577 5575 5574 5574 5574 5576 5578 5580 5583 5586 5590 5594 5600 5606 5614 5621 5628 5633 5638 5643 5649 5655 5662 5669 5674 5680 5686 5691 5698 5705 5710 5716 5721 5725 5732 5738 5740 5743 5747 5752 5757 5761 5764 5767 5769 5773 5778 5782 5786 5791 5795 5798 5804 5810 5814 5819 5823 5825
5703 5697 5691 5684 5677 5671 5665 5660 5654 5648 5642 5635 5629 5624 5619 5612 5607 5603 5599 5596 5594 5592 5590 5588 5585 5583 5581 5579 5577 5575 5573 5572 5571 5571 5573 5575 5577 5579 5582 5585 5589 5594 5599 5606 5613 5620 5626 5630 5634 5640 5647 5654 5660 5665 5671 5677 5683 5690 5696 5702 5708 5714 5718 5724 5730 5734 5738 5743 5747 5751 5755 5758 5762 5765 5769 5774 5778 5782 5787 5790 5794 5800 5805 5810 5817 5820 5822
5700 5694 5688 5682 5675 5669 5663 5658 5652 5646 5640 5634 5628 5622 5618 5613 5608 5602 5598 5595 5594 5591 5589 5587 5584 5582 5579 5577 5576 5574 5572 5570 5569 5570 5571 5573 5575 5576 5578 5580 5583 5588 5593 5597 5603 5611 5616 5619 5623 5630 5638 5645 5651 5656 5662 5668 5674 5681 5688 5694 5701 5706 5710 5716 5723 5728 5732 5736 5741 5745 5749 5753 5757 5761 5765 5768 5772 5777 5781 5785 5789 5795 5800 5808 5814 5817 5819
5697 5692 5685 5679 5674 5668 5661 5656 5650 5644 5639 5633 5627 5621 5616 5612 5607 5603 5598 5595 5593 5590 5588 5585 5583 5580 5578 5577 5575 5573 5571 5569 5568 5568 5569 5571 5572 5574 5576 5577 5579 5583 5586 5589 5594 5600 5604 5608 5614 5622 5630 5636 5642 5647 5653 5660 5667 5673 5679 5686 5693 5697 5702 5710 5718 5722 5726 5730 5735 5739 5743 5748 5752 5755 5758 5762 5766 5771 5775 5779 5785 5790 5796 5805 5811 5812 5815
5695 5689 5683 5677 5671 5666 5660 5654 5648 5643 5638 5632 5627 5621 5616 5610 5606 5602 5598 5595 5592 5590 5587 5585 5582 5580 5578 5576 5574 5572 5570 5568 5567 5567 5567 5568 5569 5571 5574 5575 5577 5579 5582 5584 5587 5591 5596 5601 5607 5615 5622 5627 5633 5640 5646 5653 5660 5665 5671 5678 5684 5689 5695 5704 5711 5715 5719 5723 5728 5733 5737 5742 5745 5748 5753 5757 5760 5765 5770 5774 5779 5784 5791 5800 5805 5808 5811
5692 5687 5681 5675 5669 5664 5658 5653 5647 5641 5636 5632 5626 5621 5615 5610 5605 5601 5597 5594 5592 5589 5587 5584 5582 5579 5577 5575 5573 5572 5570 5568 5567 5566 5565 5566 5567 5569 5571 5573 5574 5577 5579 5581 5582 5586 5591 5596 5601 5608 5615 5620 5626 5633 5639 5646 5652 5657 5663 5670 5676 5682 5689 5696 5702 5708 5712 5715 5720 5726 5731 5735 5738 5743 5748 5751 5755 5760 5765 5770 5775 5779 5784 5793 5799 5802 5806
5690 5684 5679 5673 5667 5662 5656 5651 5646 5640 5635 5631 5626 5621 5616 5610 5606 5601 5597 5593 5591 5588 5586 5584 5581 5579 5577 5575 5573 5571 5570 5568 5567 5566 5565 5565 5566 5567 5568 5569 5571 5574 5576 5578 5580 5582 5587 5591 5596 5603 5609 5614 5620 5626 5633 5639 5645 5650 5656 5662 5668 5675 5682 5688 5694 5701 5704 5707 5714 5720 5725 5728 5732 5736 5742 5746 5750 5755 5760 5764 5769 5773 5777 5785 5792 5796 5800
5688 5682 5676 5671 5665 5660 5655 5649 5644 5640 5635 5630 5625 5620 5616 5611 5606 5602 5597 5593 5590 5588 5585 5583 5581 5579 5577 5575 5573 5571 5569 5568 5567 5566 5565 5564 5565 5566 5566 5567 5569 5571 5573 5575 5578 5581 5584 5588 5593 5598 5603 5609 5615 5620 5626 5633 5638 5643 5649 5655 5661 5668 5674 5680 5687 5693 5697 5701 5708 5714 5718 5721 5725 5729 5736 5741 5746 5749 5753 5757 5762 5767 5771 5777 5784 5790 5795
5686 5680 5675 5669 5663 5658 5653 5648 5643 5639 5634 5629 5624 5620 5616 5611 5606 5601 5597 5593 5590 5587 5585 5582 5580 5578 5576 5574 5572 5571 5569 5568 5566 5565 5564 5564 5563 5563 5564 5566 5568 5569 5570 5572 5576 5579 5581 5584 5588 5593 5598 5603 5608 5614 5621 5627 5632 5637 5642 5648 5654 5660 5666 5672 5679 5686 5691 5695 5701 5708 5712 5715 5719 5724 5731 5737 5740 5743 5747 5751 5757 5761 5764 5769 5777 5783 5789
5684 5679 5674 5668 5662 5657 5652 5646 5641 5637 5633 5629 5624 5619 5615 5610 5606 5601 5597 5593 5590 5587 5584 5582 5579 5577 5576 5574 5572 5570 5569 5567 5566 5565 5564 5563 5562 5561 5562 5564 5565 5566 5568 5571 5574 5577 5579 5582 5585 5589 5594 5598 5603 5609 5615 5620 5625 5631 5636 5642 5647 5652 5658 5664 5671 5678 5684 5689 5695 5701 5706 5710 5714 5718 5723 5730 5733 5736 5741 5747 5750 5753 5757 5762 5770 5777 5783
5683 5678 5672 5667 5662 5656 5651 5646 5641 5636 5632 5628 5623 5619 5614 5610 5606 5602 5597 5594 5590 5586 5583 5581 5578 5576 5575 5573 5572 5570 5568 5567 5565 5564 5563 5563 5562 5561 5561 5562 5563 5564 5566 5568 5572 5575 5577 5580 5583 5587 5590 5594 5599 5604 5608 5614 5619 5624 5629 5635 5640 5645 5651 5657 5664 5670 5677 5682 5688 5694 5700 5705 5708 5710 5714 5721 5727 5730 5737 5743 5744 5747 5752 5757 5763 5769 5777
5681 5676 5671 5666 5660 5655 5651 5646 5641 5636 5631 5627 5623 5618 5614 5610 5606 5602 5597 5594 5590 5587 5584 5580 5578 5575 5573 5572 5570 5569 5568 5566 5565 5564 5563 5562 5561 5561 5560 5560 5561 5562 5563 5566 5570 5573 5576 5579 5582 5585 5587 5589 5594 5599 5603 5608 5613 5617 5622 5628 5634 5639 5644 5649 5655 5662 5669 5676 5682 5689 5695 5698 5699 5701 5705 5714 5721 5725 5732 5738 5739 5741 5747 5751 5756 5762 5770
5680 5675 5670 5664 5659 5654 5649 5645 5640 5635 5630 5626 5621 5617 5613 5609 5606 5602 5598 5594 5590 5587 5584 5581 5577 5574 5572 5570 5569 5568 5567 5566 5564 5563 5562 5562 5561 5560 5560 5560 5560 5560 5561 5564 5567 5570 5574 5577 5580 5582 5584 5585 5589 5594 5598 5602 5606 5611 5617 5622 5627 5632 5636 5641 5648 5655 5661 5669 5676 5682 5686 5687 5690 5694 5699 5706 5714 5719 5726 5732 5734 5736 5741 5745 5749 5756 5763
5678 5673 5668 5663 5658 5653 5648 5643 5639 5634 5629 5624 5620 5616 5613 5609 5605 5602 5598 5594 5590 5587 5584 5581 5577 5574 5572 5569 5568 5567 5565 5564 5563 5562 5561 5561 5561 5560 5560 5559 5559 5560 5560 5562 5564 5567 5571 5574 5576 5579 5581 5583 5586 5590 5593 5597 5602 5607 5612 5616 5621 5625 5629 5635 5641 5647 5654 5661 5668 5673 5677 5679 5683 5688 5692 5698 5707 5714 5719 5724 5726 5729 5734 5738 5743 5750 5756
5677 5672 5667 5662 5657 5652 5647 5642 5637 5633 5628 5623 5619 5616 5612 5608 5604 5601 5598 5594 5590 5587 5584 5581 5578 5575 5572 5569 5567 5565 5564 5563 5562 5561 5560 5560 5560 5560 5559 5559 5559 5559 5560 5560 5562 5565 5567 5570 5572 5575 5578 5581 5584 5586 5590 5594 5598 5602 5606 5610 5614 5618 5622 5628 5634 5640 5646 5653 5660 5665 5669 5670 5674 5680 5686 5693 5701 5706 5710 5714 5719 5723 5728 5733 5738 5744 5750
5676 5671 5666 5661 5656 5651 5646 5641 5636 5632 5627 5623 5618 5615 5611 5607 5603 5600 5597 5594 5590 5587 5584 5581 5578 5575 5572 5569 5567 5564 5563 5562 5561 5560 5560 5559 5559 5559 5559 5559 5558 5559 5559 5560 5561 5563 5565 5567 5569 5572 5576 5578 5580 5582 5586 5589 5592 5595 5598 5602 5607 5612 5617 5621 5627 5633 5639 5644 5650 5656 5659 5661 5667 5675 5681 5686 5693 5698 5702 5707 5713 5717 5722 5727 5733 5738 5744
5674 5670 5665 5660 5655 5650 5645 5640 5635 5630 5626 5622 5618 5614 5611 5607 5603 5599 5596 5594 5590 5586 5583 5580 5578 5575 5572 5570 5567 5565 5562 5561 5560 5560 5559 5558 5558 5558 5558 5558 5558 5558 5558 5559 5560 5561 5563 5565 5566 5569 5572 5575 5576 5579 5582 5584 5587 5591 5593 5597 5602 5607 5611 5615 5619 5624 5629 5634 5640 5646 5651 5655 5663 5671 5675 5679 5687 5694 5698 5702 5706 5711 5715 5721 5727 5732 5737
5673 5669 5664 5659 5654 5649 5644 5640 5635 5630 5625 5621 5617 5613 5609 5606 5602 5598 5595 5593 5589 5585 5582 5580 5577 5575 5573 5570 5567 5565 5563 5561 5560 5559 5558 5557 5557 5557 5557 5557 5558 5558 5558 5559 5559 5560 5561 5563 5564 5566 5569 5571 5574 5576 5578 5580 5583 5586 5589 5592 5597 5602 5605 5607 5611 5615 5620 5626 5633 5639 5646 5653 5659 5664 5669 5674 5681 5688 5692 5695 5700 5704 5708 5715 5721 5726 5732
5673 5668 5664 5659 5654 5649 5644 5639 5634 5629 5624 5620 5616 5612 5608 5604 5601 5597 5594 5591 5588 5584 5581 5579 5577 5575 5573 5570 5568 5565 5563 5561 5559 5558 5557 5557 5556 5556 5556 5557 5557 5558 5558 5558 5559 5560 5561 5562 5563 5564 5566 5568 5570 5573 5575 5577 5580 5582 5585 5588 5591 5595 5598 5601 5605 5609 5613 5621 5628 5633 5641 5648 5651 5655 5662 5668 5674 5680 5686 5690 5693 5696 5701 5707 5714 5720 5726
5672 5668 5663 5658 5653 5648 5643 5638 5633 5629 5624 5620 5615 5611 5607 5604 5600 5596 5592 5590 5587 5584 5580 5578 5577 5575 5573 5571 5568 5565 5563 5561 5560 5558 5557 5556 5556 5556 5556 5556 5557 5557 5557 5558 5558 5559 5560 5561 5562 5563 5564 5566 5568 5570 5572 5575 5576 5577 5580 5583 5587 5590 5592 5596 5600 5604 5608 5614 5621 5626 5634 5640 5644 5649 5657 5663 5667 5673 5679 5683 5686 5690 5695 5700 5707 5714 5720
5671 5667 5662 5658 5653 5648 5643 5638 5633 5629 5624 5620 5615 5611 5607 5603 5600 5596 5591 5588 5586 5583 5580 5577 5576 5575 5573 5571 5568 5566 5563 5562 5560 5559 5558 5557 5556 5556 5556 5556 5556 5556 5556 5557 5557 5558 5559 5560 5561 5562 5563 5564 5566 5567 5569 5571 5572 5573 5576 5580 5583 5584 5586 5590 5595 5600 5603 5608 5615 5622 5629 5635 5639 5645 5651 5655 5658 5664 5670 5675 5680 5685 5690 5695 5701 5707 5713
5671 5666 5662 5657 5653 5648 5643 5638 5634 5629 5625 5620 5616 5611 5607 5603 5599 5595 5591 5587 5584 5582 5579 5577 5576 5575 5573 5571 5568 5566 5564 5563 5561 5560 5559 5558 5557 5557 5556 5556 5556 5556 5556 5556 5557 5558 5558 5559 5560 5560 5561 5562 5563 5564 5565 5567 5568 5570 5573 5576 5578 5579 5582 5586 5591 5594 5597 5604 5612 5618 5623 5628 5633 5637 5641 5644 5649 5656 5663 5670 5676 5680 5686 5690 5695 5701 5707
5670 5665 5661 5657 5652 5648 5643 5638 5634 5629 5625 5621 5616 5611 5607 5603 5599 5594 5590 5587 5584 5581 5579 5576 5576 5576 5574 5571 5569 5567 5565 5564 5562 5561 5560 5559 5558 5558 5557 5557 5557 5556 5556 5556 5557 5557 5558 5559 5559 5560 5560 5561 5561 5562 5563 5564 5565 5567 5570 5572 5574 5576 5580 5582 5584 5587 5593 5602 5609 5612 5615 5620 5625 5628 5632 5638 5645 5651 5658 5665 5670 5675 5681 5686 5689 5696 5702
5669 5665 5660 5656 5652 5648 5643 5638 5634 5630 5625 5621 5617 5613 5608 5604 5600 5596 5592 5588 5584 5581 5578 5577 5577 5576 5575 5572 5570 5569 5567 5565 5564 5562 5561 5560 5559 5558 5558 5558 5557 5557 5557 5557 5557 5558 5558 5559 5559 5559 5560 5560 5561 5561 5562 5563 5564 5566 5568 5569 5570 5573 5576 5578 5580 5585 5592 5599 5603 5604 5607 5613 5618 5622 5627 5633 5639 5644 5651 5657 5662 5668 5675 5680 5685 5692 5697
5669 5664 5660 5656 5652 5648 5643 5638 5634 5630 5625 5621 5618 5614 5610 5606 5602 5597 5593 5590 5586 5582 5579 5578 5578 5577 5576 5573 5572 5571 5569 5567 5566 5564 5563 5561 5560 5559 5559 5559 5558 5558 5558 5558 5558 5558 5558 5559 5559 5559 5560 5560 5560 5561 5562 5563 5564 5565 5566 5567 5569 5571 5573 5575 5578 5583 5588 5592 5594 5595 5599 5607 5613 5616 5620 5626 5633 5638 5645 5650 5655 5662 5669 5675 5680 5687 5693
5668 5664 5660 5657 5653 5648 5644 5639 5635 5631 5626 5622 5618 5615 5612 5608 5604 5600 5596 5592 5588 5585 5582 5580 5579 5579 5577 5575 5574 5573 5571 5569 5568 5566 5565 5563 5562 5561 5561 5561 5560 5560 5560 5559 5559 5559 5559 5559 5559 5560 5560 5561 5561 5562 5562 5563 5564 5564 5565 5567 5568 5569 5571 5572 5575 5579 5582 5584 5585 5588 5595 5603 5607 5609 5613 5621 5627 5633 5638 5643 5649 5655 5663 5668 5674 5681 5687
5669 5665 5661 5658 5654 5649 5645 5641 5637 5632 5627 5623 5620 5616 5613 5610 5606 5602 5598 5594 5591 5588 5585 5583 5582 5580 5579 5577 5576 5575 5573 5572 5570 5569 5568 5566 5565 5564 5564 5563 5562 5562 5562 5561 5561 5561 5561 5561 5561 5561 5562 5562 5563 5563 5563 5564 5564 5564 5565 5566 5567 5567 5568 5569 5571 5574 5576 5577 5579 5584 5591 5598 5600 5602 5608 5615 5620 5625 5631 5637 5643 5648 5655 5661 5667 5673 5680
5670 5666 5662 5659 5655 5651 5647 5643 5638 5634 5630 5626 5622 5618 5615 5612 5609 5605 5601 5597 5594 5591 5589 5586 5585 5583 5581 5580 5578 5577 5576 5574 5573 5571 5570 5569 5568 5567 5566 5565 5565 5564 5564 5563 5563 5563 5563 5562 5562 5562 5563 5563 5563 5564 5564 5564 5565 5564 5565 5565 5565 5565 5566 5567 5569 5571 5572 5573 5575 5580 5586 5590 5593 5596 5602 5607 5612 5619 5626 5632 5637 5642 5648 5655 5661 5666 5673
5670 5667 5663 5660 5656 5652 5648 5644 5640 5636 5633 5629 5625 5621 5618 5615 5612 5608 5604 5601 5597 5595 5592 5590 5588 5586 5584 5583 5581 5580 5578 5577 5576 5575 5573 5573 5572 5571 5569 5568 5567 5567 5566 5565 5565 5564 5564 5564 5564 5563 5564 5564 5564 5565 5565 5565 5565 5565 5565 5564 5564 5565 5566 5567 5568 5569 5570 5571 5572 5575 5579 5582 5585 5589 5594 5600 5607 5615 5621 5626 5631 5637 5642 5648 5655 5660 5666
5671 5668 5664 5661 5657 5653 5650 5646 5642 5639 5635 5631 5628 5625 5621 5618 5615 5612 5608 5604 5601 5598 5595 5593 5591 5589 5587 5585 5584 5583 5581 5580 5579 5578 5577 5576 5575 5573 5572 5571 5570 5569 5568 5567 5567 5566 5566 5566 5565 5565 5565 5565 5565 5566 5566 5565 5565 5565 5564 5564 5564 5565 5565 5566 5567 5567 5568 5569 5570 5571 5573 5575 5577 5582 5589 5595 5603 5610 5616 5621 5626 5631 5636 5643 5650 5655 5661
5673 5669 5665 5661 5658 5654 5651 5648 5645 5642 5638 5634 5631 5627 5624 5622 5619 5616 5612 5608 5604 5601 5599 5596 5594 5592 5590 5588 5587 5585 5584 5583 5582 5581 5580 5579 5578 5576 5574 5573 5572 5571 5571 5570 5569 5569 5568 5568 5568 5567 5567 5566 5566 5566 5566 5566 5565 5564 5564 5564 5564 5564 5564 5564 5564 5564 5564 5565 5566 5567 5567 5568 5571 5577 5583 5590 5597 5603 5610 5615 5621 5627 5633 5638 5644 5650 5655
5674 5670 5666 5662 5658 5655 5652 5650 5648 5645 5641 5638 5634 5631 5628 5625 5622 5619 5616 5612 5607 5604 5602 5600 5597 5595 5593 5591 5589 5588 5587 5586 5585 5584 5582 5581 5580 5578 5577 5575 5575 5574 5573 5573 5572 5571 5571 5570 5570 5569 5568 5568 5567 5567 5566 5565 5564 5563 5563 5563 5563 5563 5562 5562 5561 5561 5560 5561 5561 5561 5562 5563 5566 5571 5577 5583 5589 5597 5604 5610 5617 5623 5629 5634 5640 5645 5650
5675 5672 5667 5663 5659 5656 5654 5652 5650 5647 5643 5640 5638 5635 5633 5630 5627 5624 5620 5615 5611 5608 5605 5603 5601 5598 5596 5594 5592 5591 5590 5588 5587 5586 5585 5583 5582 5580 5579 5578 5577 5576 5576 5575 5574 5573 5573 5572 5571 5571 5570 5569 5568 5567 5566 5565 5564 5563 5562 5562 5562 5562 5561 5560 5559 5559 5558 5557 5557 5557 5557 5558 5560 5566 5572 5578 5584 5592 5599 5606 5613 5620 5626 5630 5635 5640 5645
5676 5673 5669 5664 5661 5659 5658 5655 5652 5649 5645 5643 5642 5640 5637 5634 5631 5627 5623 5619 5615 5612 5609 5607 5605 5602 5600 5598 5596 5594 5592 5591 5590 5589 5588 5587 5585 5583 5582 5581 5580 5579 5578 5577 5577 5576 5575 5574 5573 5572 5571 5570 5569 5567 5566 5565 5563 5562 5561 5561 5561 5561 5559 5558 5558 5557 5556 5555 5554 5553 5553 5555 5557 5562 5568 5575 5581 5588 5595 5603 5611 5619 5625 5629 5632 5636 5641
5676 5674 5670 5666 5664 5661 5659 5657 5654 5651 5647 5646 5645 5643 5640 5637 5634 5630 5626 5623 5620 5617 5614 5611 5609 5606 5604 5602 5599 5597 5595 5594 5593 5592 5591 5590 5589 5587 5586 5585 5584 5583 5582 5581 5580 5579 5577 5575 5574 5573 5571 5571 5570 5568 5567 5565 5563 5562 5561 5560 5560 5559 5558 5558 5557 5557 5556 5554 5552 5551 5551 5553 5557 5562 5568 5575 5581 5587 5594 5601 5609 5617 5623 5627 5630 5634 5638
5677 5674 5671 5668 5666 5663 5661 5659 5658 5655 5651 5649 5647 5645 5641 5639 5636 5633 5629 5627 5625 5622 5620 5617 5614 5611 5609 5606 5604 5602 5600 5598 5596 5596 5595 5594 5593 5592 5591 5589 5588 5587 5585 5584 5582 5581 5579 5576 5575 5573 5572 5571 5570 5569 5567 5566 5564 5563 5562 5561 5560 5559 5558 5558 5558 5557 5556 5554 5554 5553 5553 5555 5560 5566 5573 5579 5584 5590 5596 5602 5608 5614 5619 5623 5626 5631 5636
5678 5675 5672 5668 5667 5665 5664 5662 5661 5659 5656 5653 5650 5646 5642 5639 5637 5636 5634 5631 5629 5627 5625 5623 5621 5618 5615 5612 5610 5607 5606 5604 5602 5600 5599 5598 5597 5596 5594 5593 5592 5590 5588 5586 5584 5581 5579 5578 5577 5575 5574 5573 5571 5569 5568 5567 5566 5565 5564 5563 5562 5561 5559 5559 5559 5558 5556 5555 5556 5558 5561 5564 5568 5573 5578 5582 5586 5591 5597 5602 5606 5612 5617 5622 5625 5629 5632
5678 5675 5672 5670 5668 5668 5666 5664 5663 5662 5659 5657 5653 5649 5645 5641 5640 5638 5637 5634 5632 5631 5630 5629 5627 5624 5622 5620 5617 5614 5612 5610 5608 5606 5604 5602 5601 5599 5597 5596 5594 5592 5590 5589 5587 5584 5582 5580 5579 5578 5576 5574 5572 5570 5569 5568 5567 5566 5565 5564 5563 5562 5561 5561 5560 5560 5559 5559 5560 5563 5567 5570 5573 5576 5580 5583 5586 5592 5597 5601 5605 5611 5618 5622 5625 5627 5631
5678 5675 5673 5672 5671 5671 5670 5668 5667 5665 5663 5659 5656 5652 5648 5645 5643 5641 5638 5637 5636 5634 5633 5632 5631 5629 5627 5625 5623 5620 5618 5616 5613 5611 5609 5607 5605 5603 5601 5598 5596 5595 5594 5592 5590 5587 5584 5583 5581 5580 5579 5576 5574 5572 5570 5568 5567 5567 5566 5565 5564 5562 5562 5562 5562 5562 5563 5564 5565 5567 5571 5574 5576 5579 5581 5584 5587 5592 5596 5601 5606 5612 5617 5621 5624 5627 5630
5678 5676 5675 5674 5674 5674 5673 5671 5669 5667 5664 5660 5657 5653 5650 5648 5646 5644 5642 5640 5639 5638 5636 5635 5634 5632 5630 5628 5627 5624 5622 5620 5618 5616 5613 5611 5610 5608 5604 5601 5600 5599 5597 5594 5592 5590 5588 5587 5586 5585 5582 5579 5577 5574 5572 5570 5568 5567 5566 5565 5563 5561 5561 5563 5565 5566 5567 5569 5570 5571 5573 5576 5578 5581 5583 5585 5588 5592 5596 5600 5605 5609 5613 5617 5621 5625 5627
5680 5679 5678 5678 5677 5676 5674 5672 5669 5667 5664 5661 5657 5655 5652 5650 5649 5647 5645 5643 5641 5640 5639 5638 5636 5634 5632 5631 5630 5627 5625 5624 5622 5620 5617 5616 5614 5610 5607 5606 5605 5602 5598 5596 5594 5593 5591 5591 5590 5588 5585 5582 5580 5577 5575 5573 5571 5569 5568 5567 5565 5563 5563 5566 5568 5569 5570 5572 5574 5575 5576 5577 5579 5582 5585 5587 5589 5592 5595 5599 5603 5606 5609 5614 5618 5621 5624
5683 5682 5682 5681 5679 5677 5674 5672 5669 5666 5663 5660 5658 5655 5654 5653 5652 5649 5647 5645 5644 5642 5640 5639 5638 5637 5635 5633 5632 5630 5628 5627 5625 5622 5621 5620 5616 5612 5611 5611 5610 5605 5600 5597 5596 5595 5594 5594 5593 5591 5588 5586 5584 5581 5579 5576 5574 5572 5571 5570 5569 5568 5569 5570 5571 5572 5573 5575 5577 5578 5579 5580 5582 5584 5586 5588 5591 5593 5596 5600 5603 5606 5610 5614 5616 5618 5620
5685 5684 5684 5682 5680 5677 5674 5671 5668 5665 5663 5661 5659 5657 5655 5655 5654 5652 5650 5648 5646 5643 5641 5640 5639 5639 5638 5636 5634 5632 5630 5628 5626 5624 5624 5622 5619 5616 5616 5615 5612 5606 5602 5598 5597 5597 5598 5598 5596 5594 5592 5590 5587 5585 5582 5580 5578 5576 5575 5573 5573 5572 5573 5573 5574 5575 5576 5578 5580 5581 5582 5583 5585 5586 5588 5590 5592 5594 5597 5600 5603 5606 5610 5613 5615 5617 5619
5687 5686 5685 5682 5680 5677 5674 5671 5668 5666 5664 5662 5660 5658 5657 5655 5654 5652 5651 5649 5647 5645 5643 5641 5640 5639 5639 5638 5636 5634 5632 5630 5628 5626 5625 5623 5621 5620 5619 5616 5611 5608 5605 5602 5601 5602 5602 5600 5598 5597 5595 5593 5590 5588 5586 5584 5582 5581 5579 5577 5576 5575 5576 5576 5577 5578 5580 5581 5583 5584 5585 5586 5587 5588 5589 5591 5592 5594 5596 5598 5601 5603 5607 5610 5613 5615 5616
5687 5686 5684 5682 5679 5676 5673 5670 5668 5666 5664 5663 5661 5660 5658 5657 5655 5653 5651 5650 5648 5647 5645 5643 5641 5640 5639 5638 5636 5635 5634 5632 5630 5628 5626 5625 5623 5622 5620 5617 5614 5611 5608 5606 5606 5605 5604 5602 5600 5599 5597 5596 5594 5592 5589 5588 5587 5586 5584 5582 5581 5579 5579 5579 5579 5580 5581 5582 5583 5585 5586 5587 5587 5588 5589 5591 5592 5594 5595 5597 5599 5600 5603 5606 5609 5611 5612
5688 5686 5684 5681 5678 5676 5673 5671 5669 5667 5666 5664 5663 5662 5660 5658 5656 5654 5652 5650 5648 5647 5645 5643 5642 5640 5639 5637 5636 5635 5634 5633 5632 5630 5628 5626 5624 5622 5621 5619 5616 5614 5611 5610 5609 5607 5605 5604 5603 5601 5600 5598 5597 5595 5593 5591 5590 5589 5588 5587 5585 5584 5583 5582 5582 5582 5582 5583 5584 5585 5586 5587 5587 5588 5590 5591 5593 5594 5595 5596 5598 5600 5601 5603 5605 5607 5609
5689 5687 5685 5682 5680 5678 5676 5674 5672 5670 5668 5666 5665 5663 5661 5658 5656 5654 5652 5650 5648 5647 5645 5643 5642 5640 5639 5638 5637 5636 5634 5633 5631 5630 5628 5627 5625 5623 5622 5620 5618 5616 5614 5612 5611 5609 5607 5606 5605 5603 5602 5601 5599 5598 5596 5595 5593 5592 5591 5590 5589 5588 5588 5587 5586 5586 5585 5585 5586 5586 5587 5587 5588 5589 5591 5592 5594 5595 5595 5596 5597 5600 5602 5604 5605 5606 5608
5690 5687 5685 5683 5681 5679 5677 5675 5673 5670 5669 5667 5665 5663 5661 5659 5657 5655 5653 5651 5649 5648 5646 5645 5643 5641 5640 5639 5637 5636 5634 5632 5631 5629 5628 5626 5625 5624 5622 5621 5619 5618 5616 5614 5613 5611 5610 5608 5606 5605 5604 5603 5601 5600 5599 5597 5596 5595 5594 5593 5592 5592 5591 5590 5590 5590 5589 5589 5589 5589 5589 5589 5590 5591 5591 5593 5594 5595 5595 5596 5597 5599 5601 5604 5605 5606 5607